This demonstration page uses our WeatherBlox Daily Observations layout. Learn more.

Left ArrowRight Arrow

Hourly Observations for December 11, 2020

Temp ( °F °C ) Dew Point ( °F °C ) Humidity (%) Winds ( mph kmh ) Pressure ( in mb ) Visibility ( mi km ) Precip ( " mm )
12:15 am 00:15 Cloudy 35 1.8 28 -2 76 76 N 14 22 30.05 1018 10 16 N/A
12:35 am 00:35 Cloudy 35 1.8 28 -2 76 76 N 15 24 30.05 1018 10 16 N/A
12:55 am 00:55 Cloudy 35 1.7 28 -2 77 77 N 18 30 30.02 1017 10 16 N/A
1:15 am 01:15 Cloudy 35 1.5 28 -2.1 77 77 N 15 24 30.02 1017 10 16 N/A
1:35 am 01:35 Cloudy 35 1.5 28 -2.1 77 77 N 13 20 30.03 1017 10 16 N/A
1:55 am 01:55 Cloudy 34 1.2 28 -2.1 79 79 N 15 24 30.02 1017 10 16 N/A
2:15 am 02:15 Cloudy 34 1.1 28 -2.2 79 79 N 15 24 30.02 1017 10 16 N/A
2:35 am 02:35 Cloudy 34 1.1 28 -2.2 79 79 N 16 26 30.02 1017 10 16 N/A
2:55 am 02:55 Cloudy 34 1 28 -2.1 80 80 N 16 26 30.03 1017 10 16 N/A
3:15 am 03:15 Cloudy 33 0.8 28 -2.1 81 81 N 15 24 30.02 1016 10 16 N/A
3:35 am 03:35 Cloudy 33 0.6 28 -2.1 82 82 N 17 28 30.02 1017 10 16 N/A
3:55 am 03:55 Cloudy 33 0.5 28 -2 84 84 N 18 30 30.02 1017 10 16 N/A
4:15 am 04:15 Cloudy 33 0.5 28 -2 84 84 N 16 26 30.02 1017 10 16 N/A
4:35 am 04:35 Cloudy 32 0.2 28 -2 85 85 N 18 30 30.02 1017 10 16 N/A
4:55 am 04:55 Cloudy 32 0.1 29 -1.7 88 88 N 18 30 30.01 1016 10 16 N/A
5:15 am 05:15 Cloudy with Light Snow 32 undefined 29 -1.6 89 89 N 15 24 30.02 1017 5 8 N/A
5:35 am 05:35 Cloudy with Light Snow 32 -0.1 29 -1.5 90 90 N 14 22 30.02 1016 3 5 N/A
5:55 am 05:55 Cloudy with Light Snow 32 -0.2 30 -1.3 92 92 N 14 22 30.02 1016 2 3 N/A
6:15 am 06:15 Cloudy with Light Snow 32 -0.2 30 -1.1 94 94 N 13 20 30.02 1016 2 3 N/A
6:35 am 06:35 Cloudy with Light Snow 32 -0.2 30 -1 94 94 N 14 22 30.03 1017 2 2 0.01 0.25
6:55 am 06:55 Cloudy with Light Snow 32 -0.2 30 -1 94 94 N 13 20 30.03 1017 2 3 0.01 0.25
7:15 am 07:15 Cloudy with Light Snow 32 -0.2 30 -1 94 94 N 13 20 30.03 1017 2 3 N/A
7:35 am 07:35 Cloudy with Light Snow 31 -0.3 30 -1 95 95 N 17 28 30.03 1017 2 3 N/A
7:55 am 07:55 Cloudy with Light Snow 31 -0.3 30 -1 95 95 N 12 19 30.03 1017 2 2 N/A
8:15 am 08:15 Cloudy with Light Snow 31 -0.5 30 -1.1 96 96 N 14 22 30.03 1017 2 3 0.01 0.25
8:35 am 08:35 Cloudy with Light Snow 31 -0.5 30 -1.1 96 96 N 15 24 30.03 1017 1 2 0.01 0.25
8:55 am 08:55 Cloudy with Light Snow 31 -0.5 30 -1.1 96 96 N 16 26 30.03 1017 1 2 0.01 0.25
9:15 am 09:15 Cloudy with Light Snow 31 -0.4 30 -1.1 95 95 N 15 24 30.03 1017 1 2 N/A
9:35 am 09:35 Cloudy with Light Snow 32 -0.2 30 -1 94 94 N 16 26 30.03 1017 1 2 0.01 0.25
9:55 am 09:55 Cloudy with Light Snow 32 -0.2 30 -1 94 94 N 15 24 30.03 1017 2 3 0.01 0.25
10:15 am 10:15 Cloudy with Light Snow 32 -0.1 30 -1 94 94 N 15 24 30.03 1017 4 6 N/A
10:35 am 10:35 Cloudy with Light Snow 32 undefined 30 -1 93 93 N 16 26 30.01 1016 4 6 N/A
10:55 am 10:55 Cloudy with Light Snow 32 undefined 30 -1 93 93 N 18 30 30.01 1016 4 6 N/A
11:15 am 11:15 Cloudy with Light Snow 32 undefined 30 -1 93 93 N 17 28 30.00 1016 5 8 N/A
11:35 am 11:35 Cloudy with Light Wintry Mix 32 undefined 30 -1.2 92 92 N 17 28 29.99 1016 7 11 N/A
11:55 am 11:55 Cloudy with Light Wintry Mix 32 undefined 30 -1.2 92 92 N 16 26 29.99 1016 7 11 N/A
12:15 pm 12:15 Cloudy 32 undefined 30 -1.2 92 92 N 17 28 29.98 1015 10 16 N/A
12:35 pm 12:35 Cloudy with Light Snow 32 undefined 30 -1.3 91 91 N 18 30 29.96 1015 10 16 N/A
12:55 pm 12:55 Cloudy 32 undefined 30 -1.3 91 91 N 17 28 29.95 1014 10 16 N/A
1:15 pm 13:15 Cloudy with Light Wintry Mix 32 undefined 30 -1.2 92 92 N 17 28 29.95 1014 7 11 N/A
1:35 pm 13:35 Cloudy 32 undefined 30 -1.2 92 92 N 16 26 29.95 1014 10 16 N/A
1:55 pm 13:55 Cloudy 32 undefined 30 -1.2 92 92 N 18 30 29.94 1014 10 16 N/A
2:15 pm 14:15 Cloudy 32 undefined 30 -1.2 92 92 N 15 24 29.94 1014 10 16 N/A
2:35 pm 14:35 Cloudy 32 undefined 30 -1.2 92 92 N 18 30 29.95 1014 10 16 N/A
2:55 pm 14:55 Cloudy 32 undefined 30 -1.3 91 91 N 20 31 29.95 1014 10 16 N/A
3:15 pm 15:15 Cloudy with Light Snow 32 undefined 30 -1.3 91 91 N 16 26 29.96 1015 10 16 N/A
3:35 pm 15:35 Cloudy with Light Wintry Mix 32 undefined 30 -1.3 91 91 N 16 26 29.96 1015 5 8 N/A
3:55 pm 15:55 Cloudy with Light Snow 32 -0.1 30 -1.2 92 92 N 17 28 29.97 1015 3 5 N/A
4:15 pm 16:15 Cloudy with Light Snow 32 -0.2 30 -1.3 92 92 N 15 24 29.98 1015 4 6 0.01 0.25
4:35 pm 16:35 Cloudy with Light Snow 31 -0.3 30 -1.3 93 93 N 15 24 29.99 1015 3 5 0.01 0.25
4:55 pm 16:55 Cloudy with Light Snow 31 -0.3 30 -1.2 94 94 N 16 26 29.99 1015 2 3 0.01 0.25
5:15 pm 17:15 Cloudy with Light Snow 31 -0.3 30 -1.2 94 94 N 10 17 29.99 1015 3 5 N/A
5:35 pm 17:35 Cloudy with Light Snow 31 -0.3 30 -1.2 94 94 N 15 24 30.00 1016 5 8 N/A
5:55 pm 17:55 Cloudy with Light Snow 31 -0.5 29 -1.5 93 93 N 16 26 30.00 1016 4 6 N/A
6:15 pm 18:15 Cloudy with Light Snow 31 -0.5 29 -1.4 94 94 N 9 15 30.01 1016 2 3 0.01 0.25
6:35 pm 18:35 Cloudy with Light Snow 31 -0.6 30 -1.3 95 95 N 12 19 30.02 1017 2 2 0.01 0.25
6:55 pm 18:55 Cloudy with Light Snow 31 -0.6 30 -1.3 95 95 N 13 20 30.02 1017 2 3 0.02 0.51
7:15 pm 19:15 Cloudy with Light Snow 31 -0.7 29 -1.5 94 94 N 12 19 30.02 1017 3 4 N/A
7:35 pm 19:35 Cloudy with Light Snow 31 -0.7 29 -1.5 94 94 N 13 20 30.03 1017 3 5 0.01 0.25
7:55 pm 19:55 Cloudy with Light Snow 31 -0.6 29 -1.5 94 94 N 12 19 30.03 1017 2 3 0.01 0.25
8:15 pm 20:15 Cloudy with Light Snow 31 -0.7 29 -1.5 94 94 N 10 17 30.04 1017 1 2 0.01 0.25
8:35 pm 20:35 Cloudy with Light Snow 31 -0.7 29 -1.5 94 94 N 14 22 30.04 1017 2 3 0.01 0.25
8:55 pm 20:55 Cloudy with Light Snow 31 -0.7 29 -1.5 94 94 N 15 24 30.04 1017 3 4 0.02 0.51
9:15 pm 21:15 Cloudy with Light Snow 31 -0.7 29 -1.5 94 94 N 15 24 30.05 1018 3 4 N/A
9:35 pm 21:35 Cloudy with Light Snow 31 -0.7 29 -1.5 94 94 N 16 26 30.05 1018 2 2 N/A
9:55 pm 21:55 Cloudy with Light Snow 31 -0.8 29 -1.6 94 94 N 15 24 30.06 1018 2 2 N/A
10:15 pm 22:15 Cloudy with Light Snow 31 -0.8 29 -1.6 94 94 N 15 24 30.06 1018 2 2 0.01 0.25
10:35 pm 22:35 Cloudy with Light Wintry Mix 31 -0.8 29 -1.6 94 94 N 14 22 30.07 1018 3 5 0.01 0.25
10:55 pm 22:55 Cloudy with Light Snow 30 -1 28 -2 93 93 N 15 24 30.07 1018 3 4 0.01 0.25
11:15 pm 23:15 Cloudy with Light Snow 30 -1 28 -2 93 93 N 17 28 30.07 1018 3 5 0.01 0.25
11:35 pm 23:35 Cloudy with Light Snow 30 -1 28 -2.1 92 92 N 14 22 30.07 1018 7 11 0.01 0.25
11:55 pm 23:55 Cloudy with Light Snow 30 -1 28 -2.2 92 92 N 14 22 30.07 1018 4 6 0.01 0.25

Powered by AerisWeather